Terminal Aerodrome Forecast
Issued by NWS Caribou, ME

Home | Current Version | Previous Version | Text Only | Print | Product List | Glossary On
Versions: 1 2 3 4 5 6 7 8 9 10 11 12 13 14 15 16 17 18 19 20 21 22 23 24 25 26
000
FTUS41 KCAR 190543
TAFCAR
TAF
KCAR 190543Z 1906/2006 33012G20KT 6SM -SHSN OVC016
     FM191200 32010G18KT P6SM OVC024
     FM191800 31010KT P6SM BKN030
     FM192200 30008KT P6SM SCT035=

USA.gov is the U.S. government's official web portal to all federal, state and local government web resources and services.